Theta_e
316 315 311 313 313 313 314 314 312 313 313 314 312 312 312 311 312 313 313 314 313 316 314 316 317 313 313 315 316 314 315 312 308 308 307 307 307 312 318 322 324 325 325 326 327 327 328 326 326 325 325 323 322 323 322 322 323 322 322 322 322 321 321 320 320 320 319 318 318 317 317 316 316 316 315 315 315 315 314 314 314 314 314 314 314
315 312 312 313 313 312 313 313 312 313 312 314 314 311 312 310 311 311 311 311 313 313 314 316 315 315 314 312 313 316 313 310 308 307 307 306 306 309 316 318 322 325 325 326 326 326 326 325 325 325 324 323 322 321 322 322 323 322 322 322 321 321 320 320 319 318 318 317 317 317 316 316 315 314 315 314 315 314 315 314 314 314 314 313 313
316 315 313 314 314 314 314 314 313 314 314 315 311 313 312 313 315 314 313 312 313 310 313 315 316 317 314 311 311 316 313 311 310 307 307 306 304 305 308 315 319 322 326 325 325 326 326 324 324 323 323 322 322 322 322 322 322 322 321 321 321 321 321 319 318 317 317 316 316 315 315 315 314 314 314 314 314 314 314 314 314 314 313 313 313
317 315 315 314 314 314 314 313 315 315 314 315 313 313 314 315 313 312 311 311 309 311 311 313 316 318 315 314 312 316 315 313 311 309 307 305 303 302 304 305 313 316 319 325 324 325 325 324 323 323 322 322 322 322 322 322 323 322 321 321 321 320 319 318 317 317 317 316 316 315 315 314 313 314 313 314 313 313 313 313 313 313 312 312 312
317 316 315 316 316 314 313 314 315 316 314 314 313 311 311 311 313 310 311 312 313 313 312 310 312 313 310 310 312 316 317 315 313 311 306 305 302 301 300 300 300 309 313 318 325 324 323 322 321 321 321 320 320 321 322 322 323 322 321 322 320 319 317 317 316 316 316 315 316 315 313 313 313 313 312 313 312 313 313 313 312 312 312 312 312
317 316 316 316 316 315 315 315 315 314 314 314 314 312 313 312 315 311 314 312 313 312 312 310 309 309 311 313 316 316 315 314 313 312 306 304 302 299 298 298 298 300 302 312 318 322 321 322 321 321 320 320 319 319 320 321 322 321 320 319 320 318 317 316 316 316 316 315 315 314 313 313 312 312 312 312 312 312 312 312 312 312 311 312 312
317 317 316 315 315 315 315 316 316 315 313 314 315 314 314 315 312 314 310 311 310 308 311 308 312 314 314 314 314 312 311 313 311 308 306 303 301 299 298 298 298 299 300 300 309 316 318 317 317 317 317 317 317 317 319 320 320 320 320 318 318 317 316 315 315 315 314 314 314 313 312 312 312 312 312 311 311 311 311 312 311 311 311 312 312
317 317 317 316 316 316 316 316 315 314 315 314 314 316 314 315 313 315 312 310 309 311 308 308 308 312 315 316 314 312 310 308 307 304 302 302 301 298 298 297 296 297 301 300 301 309 315 315 314 313 312 312 312 314 317 318 319 319 319 318 317 317 316 314 314 314 313 313 313 312 312 311 311 311 311 311 311 311 311 311 311 310 310 311 310
318 317 317 316 316 316 316 316 315 315 314 315 315 316 316 316 313 313 313 310 308 309 310 308 311 311 313 315 314 311 309 307 305 303 301 301 298 297 297 297 297 303 296 298 299 301 310 313 313 311 309 308 309 311 314 315 317 319 318 317 317 316 314 314 313 312 312 312 311 311 310 310 311 310 311 310 310 310 310 311 310 311 310 311 310
318 318 318 318 317 316 316 316 315 315 316 315 316 316 314 315 315 310 312 311 309 311 310 307 308 309 310 312 310 309 307 305 304 301 299 298 297 298 298 296 296 296 296 296 296 297 298 305 309 309 307 305 305 308 311 312 314 317 318 317 316 315 315 313 312 311 311 310 310 310 311 310 310 310 310 310 310 309 309 310 310 310 310 310 310
319 318 318 318 316 316 317 317 316 316 316 315 315 314 314 312 314 310 307 310 312 312 312 309 307 308 309 309 308 305 302 301 300 298 297 297 298 298 296 294 295 295 296 295 293 293 295 296 297 297 300 303 303 305 308 310 310 313 316 316 315 315 314 312 311 310 310 310 310 310 310 309 310 310 310 310 310 310 309 309 310 310 310 310 310
319 319 319 318 317 317 317 317 315 315 315 314 314 313 313 311 310 311 309 309 309 309 309 308 305 306 307 308 304 303 302 300 298 297 296 296 297 295 296 293 294 294 295 293 292 292 294 295 296 294 295 298 301 302 304 307 308 309 313 315 315 314 313 312 311 310 310 310 310 309 309 309 309 310 310 310 310 309 309 310 309 310 309 310 309
317 318 319 318 318 317 317 317 316 316 316 316 316 315 314 314 313 309 311 309 310 308 308 308 309 306 306 303 306 306 304 301 298 296 295 295 294 294 293 294 292 294 294 292 292 291 292 294 293 292 291 288 292 299 300 302 304 308 309 312 313 313 312 311 311 309 309 309 309 309 309 309 308 309 309 309 309 309 309 310 309 310 309 309 308
317 318 319 319 319 318 317 318 317 316 316 317 315 312 313 311 311 310 311 312 312 310 310 311 305 304 304 303 305 307 305 300 297 296 296 294 293 293 292 294 293 293 292 293 291 291 292 293 293 292 290 288 288 289 292 293 298 304 306 308 310 312 312 311 310 309 308 308 308 308 308 308 308 309 309 309 309 309 309 309 308 309 309 309 309
319 318 319 320 320 319 318 318 317 317 315 314 314 313 313 313 313 315 311 310 310 308 310 312 307 300 301 305 303 304 306 303 301 298 297 294 291 291 292 292 293 292 293 293 292 291 292 293 292 291 289 288 288 288 290 294 297 300 303 304 308 310 310 310 310 308 308 307 307 307 307 307 307 308 308 308 308 308 308 308 308 309 309 308 309
321 320 319 321 321 321 320 319 318 317 317 316 314 314 313 313 313 313 314 313 312 312 310 310 305 308 305 306 304 304 301 304 299 297 295 293 290 290 291 293 292 291 291 294 293 292 292 293 291 290 288 287 287 288 289 290 296 298 299 301 303 307 308 309 309 308 307 307 307 307 306 307 306 308 307 307 307 308 308 308 308 308 308 308 308
322 321 319 320 321 322 321 320 319 318 317 317 316 316 315 315 314 314 314 315 312 310 311 309 307 313 308 299 298 299 301 297 297 296 294 293 290 289 290 291 292 292 292 292 290 291 292 291 290 289 287 286 286 287 288 288 290 293 293 300 301 304 305 306 307 307 306 306 306 306 306 306 306 307 307 307 307 307 307 307 307 307 307 308 307
322 322 321 320 321 322 322 321 320 318 317 318 318 316 315 314 315 315 314 314 316 313 313 308 308 310 309 305 306 303 300 295 298 297 295 290 288 289 289 290 290 291 290 290 289 290 291 291 289 288 287 286 286 286 287 288 291 290 291 297 301 302 303 304 305 306 305 305 305 305 306 306 305 306 306 306 306 306 306 306 307 307 306 307 307
321 322 322 321 321 321 322 322 321 320 317 318 317 317 316 316 315 315 316 315 314 313 313 313 309 310 308 304 301 294 299 300 299 290 291 294 291 289 290 289 288 289 290 290 289 290 289 289 288 287 286 286 285 286 286 288 293 296 299 300 300 301 302 301 302 303 303 304 304 304 305 304 305 305 305 305 305 305 305 306 306 307 306 306 306
319 321 322 321 320 321 321 321 321 321 318 318 319 318 317 316 315 316 316 316 315 315 312 312 312 312 309 307 303 297 297 295 296 300 293 288 292 291 288 288 289 288 290 290 288 289 290 288 287 285 285 285 285 285 285 286 286 287 294 299 299 300 301 301 301 300 301 302 302 303 303 304 304 305 305 304 304 305 305 305 305 306 306 306 306
319 320 321 322 319 320 321 321 321 321 317 319 319 318 317 317 315 314 315 315 316 316 315 313 313 314 308 307 303 302 297 297 294 294 291 289 289 288 286 288 288 287 287 288 288 288 290 288 287 285 286 285 284 285 285 285 286 287 295 297 298 299 301 301 300 300 299 299 299 300 301 302 303 304 304 304 304 304 304 305 305 305 305 305 305
319 319 320 321 321 320 320 321 321 321 316 319 319 318 318 318 317 317 316 316 316 315 316 315 314 314 313 311 308 302 300 298 295 295 292 291 291 288 286 287 286 287 287 287 287 287 288 288 287 285 284 284 284 285 285 285 285 288 292 295 296 297 299 300 300 299 298 298 298 298 299 300 301 302 303 303 303 303 304 304 305 304 304 304 304
319 319 319 320 321 320 320 321 321 320 317 318 318 319 318 318 318 317 316 317 316 315 313 313 312 312 311 311 311 309 308 304 302 294 296 292 289 289 287 287 286 285 287 287 286 286 287 287 285 284 284 284 284 285 285 286 290 291 293 294 295 295 296 299 299 298 298 298 298 298 298 298 298 300 301 302 302 302 303 304 304 304 304 304 303
320 320 320 320 320 321 320 321 320 321 321 320 320 320 320 319 319 318 317 317 317 314 315 313 311 312 313 312 312 311 310 308 306 300 298 298 296 294 290 286 286 285 286 285 285 286 286 286 285 284 284 284 284 285 286 286 287 290 289 293 293 294 295 298 299 298 298 298 297 297 297 297 297 298 298 299 300 301 302 303 303 303 303 303 302
320 321 321 321 320 321 321 321 321 321 321 321 320 319 319 319 318 318 318 317 317 316 315 314 313 312 313 312 311 311 310 309 306 301 300 300 298 295 289 286 285 285 285 285 284 284 284 285 285 285 284 285 285 285 285 285 285 289 289 291 292 292 293 295 297 297 297 297 297 296 296 296 297 297 297 298 298 299 300 301 302 302 302 302 302
321 321 322 321 321 321 321 321 322 321 320 321 320 319 319 319 318 318 317 317 317 316 316 315 314 313 313 311 310 310 309 306 304 300 299 296 292 294 289 285 284 285 284 285 283 284 284 285 285 284 285 284 284 284 284 285 285 289 288 286 289 291 292 294 295 295 296 296 296 296 295 296 296 296 296 297 297 297 298 299 300 300 300 301 301
322 323 320 321 321 321 321 321 321 321 320 320 319 319 318 318 317 318 317 317 317 316 316 315 314 313 312 312 311 309 309 306 302 299 298 298 298 295 292 289 284 283 285 283 283 284 283 283 285 284 284 284 284 283 284 283 288 289 286 283 285 289 290 292 293 294 295 295 295 295 295 295 295 295 295 295 296 296 296 297 298 298 298 299 300
324 322 322 322 321 321 320 321 322 321 321 320 320 319 318 318 319 318 317 316 317 316 316 316 316 315 314 313 310 309 308 306 302 302 297 298 299 296 295 294 290 284 282 284 283 284 284 283 284 283 283 283 284 283 287 287 285 288 286 283 283 285 289 290 292 292 293 294 294 294 294 294 295 295 294 294 294 294 295 296 296 296 296 297 298
324 322 323 321 322 321 321 320 321 322 322 321 321 321 320 319 318 318 318 317 316 316 316 316 316 315 313 311 309 311 310 306 302 299 297 294 294 295 295 295 294 291 282 282 283 284 284 282 282 284 283 283 284 285 284 283 286 284 283 283 283 283 287 289 290 291 292 293 293 293 293 294 294 294 293 293 293 293 294 294 294 294 295 295 296
322 322 321 321 321 316 321 321 320 321 322 322 322 321 320 319 319 319 319 318 316 316 316 316 316 315 312 310 308 308 305 301 300 299 296 294 293 293 294 294 293 293 287 284 283 283 282 282 281 282 282 283 284 284 284 284 287 284 282 282 283 283 286 287 288 289 290 291 291 291 292 292 293 293 293 293 292 293 294 294 294 294 294 295 296
318 320 319 320 320 320 321 321 321 321 321 322 321 321 320 319 318 318 319 318 317 315 315 314 314 312 309 307 305 303 297 297 297 295 294 293 293 292 292 292 289 290 288 284 283 281 283 284 282 282 284 283 284 283 283 283 285 283 282 282 283 285 284 284 286 287 289 290 290 289 290 291 291 291 292 292 292 292 292 293 293 293 293 294 294
319 319 317 317 316 317 318 320 321 321 320 321 321 320 320 319 318 317 317 317 316 315 314 311 309 306 306 305 302 301 297 295 293 291 291 291 291 290 289 289 288 286 286 284 283 282 281 281 282 283 284 284 283 282 281 283 285 284 281 281 283 283 281 280 284 285 287 288 288 288 288 289 289 290 290 291 291 292 291 292 292 292 292 293 293
318 315 316 316 316 316 316 316 319 320 319 319 319 319 318 317 317 317 316 314 314 313 312 310 307 306 305 304 301 299 295 294 291 290 290 290 289 289 288 288 286 283 284 283 283 280 282 282 283 283 283 283 282 282 281 281 281 282 282 281 281 281 281 280 280 283 285 287 286 287 288 288 287 288 289 289 289 290 290 290 290 290 290 291 291
316 317 316 317 315 316 316 317 318 319 319 319 318 317 316 315 315 315 314 311 310 310 307 307 304 303 303 303 303 298 292 293 291 290 290 289 288 288 286 286 286 283 282 282 281 282 281 281 281 283 282 283 282 283 281 281 281 281 280 280 281 281 281 280 279 279 284 285 286 286 286 286 287 287 287 287 288 288 288 289 288 289 289 290 290
313 317 318 318 317 317 316 316 317 317 318 317 317 316 315 315 314 312 311 310 310 311 310 309 307 302 300 300 299 294 290 291 291 291 290 289 288 288 287 286 285 284 283 281 282 282 282 281 282 281 282 282 282 282 282 282 282 281 280 280 280 281 281 280 279 279 283 285 285 285 285 285 286 286 286 286 286 287 287 287 287 288 288 289 289
315 315 316 318 316 316 315 315 315 315 315 315 315 314 316 315 314 315 313 311 311 311 310 309 306 301 300 298 296 292 289 290 290 289 288 288 287 287 287 286 285 285 283 281 282 281 281 281 281 282 283 281 281 281 282 281 281 281 280 280 280 280 279 279 279 278 281 284 284 283 284 284 284 285 285 285 286 286 286 286 286 287 287 288 288
314 313 312 313 314 315 315 314 314 314 314 314 314 313 313 314 314 314 313 311 307 304 302 302 300 297 297 297 294 290 290 292 289 288 287 287 287 287 286 286 285 285 283 282 281 282 282 282 281 282 282 282 281 281 281 280 280 280 280 279 279 279 279 279 279 279 282 283 282 282 282 283 283 284 284 284 284 285 285 285 286 286 286 287 288
309 310 312 312 312 314 314 314 314 314 314 313 313 313 311 310 310 308 304 304 304 306 305 304 301 298 297 297 295 292 291 292 290 288 288 287 287 286 285 285 284 283 281 280 281 281 283 282 282 281 281 280 280 280 281 281 280 279 279 279 279 278 277 278 278 279 279 278 277 278 279 280 281 282 282 283 283 284 284 284 285 285 285 286 287
306 307 308 310 309 312 313 313 313 314 314 313 312 311 310 308 306 305 304 302 300 299 298 297 296 295 295 294 292 291 291 291 291 289 288 287 287 286 285 285 283 282 281 280 280 281 281 281 281 281 281 281 281 280 280 281 281 280 279 278 277 277 277 276 276 277 278 278 279 280 279 279 280 279 280 281 281 282 283 283 283 284 285 286 287
305 306 308 309 310 309 311 311 312 311 311 310 308 307 307 307 305 304 303 301 298 295 294 293 293 293 292 292 291 291 291 291 291 289 288 287 286 285 284 284 283 282 281 281 280 280 281 281 281 281 281 280 280 280 280 280 279 279 279 277 277 275 274 275 276 275 275 275 274 274 277 277 277 277 279 279 279 280 280 280 281 282 284 286 286
301 302 303 304 306 307 305 305 305 303 305 305 304 304 305 305 304 303 302 298 294 294 292 291 290 291 290 291 291 290 290 289 289 288 288 288 286 284 283 283 282 282 281 281 281 281 281 280 280 281 280 280 280 279 278 278 278 279 278 277 275 274 275 275 275 276 276 274 274 274 273 273 272 272 272 273 274 277 276 278 278 281 284 286 286
295 295 297 298 300 300 300 298 299 299 300 301 298 299 299 302 301 299 297 294 293 292 292 290 289 289 290 289 289 287 287 287 287 287 288 288 287 286 283 283 282 282 282 281 281 280 280 279 280 280 279 279 280 280 279 279 279 277 276 275 274 275 275 274 275 274 276 275 272 273 273 272 269 269 270 271 273 274 274 274 275 281 284 285 285
293 293 293 295 294 294 295 295 295 296 298 298 297 298 298 299 297 296 295 293 291 291 291 292 291 289 288 288 287 286 286 286 286 287 288 288 288 287 287 286 286 284 282 281 280 280 280 279 279 279 279 279 280 281 280 279 278 278 277 276 275 274 273 271 272 273 275 274 271 268 271 269 269 269 269 269 270 271 273 273 280 283 284 285 285
289 289 291 291 291 291 292 292 292 292 293 294 297 297 297 297 295 295 294 292 291 291 291 291 290 288 288 287 286 286 286 286 286 286 286 287 288 288 287 287 287 288 287 284 282 280 280 279 279 280 280 280 281 281 280 279 278 277 277 276 275 274 273 272 272 272 274 276 272 269 271 268 267 268 268 269 270 270 272 277 281 283 284 284 284
288 289 289 290 289 289 290 291 291 290 291 293 295 295 296 296 296 295 293 292 291 291 290 290 289 288 287 286 285 286 286 285 285 285 285 285 287 287 287 287 287 288 288 289 288 284 283 281 281 281 281 281 281 281 281 280 280 277 276 275 275 275 275 273 274 273 275 275 272 269 268 269 266 268 267 270 269 269 270 275 280 282 283 283 283
288 288 288 288 288 289 289 290 290 289 290 291 294 294 294 295 295 294 291 292 291 290 290 290 289 288 287 287 286 285 286 286 285 285 284 284 284 284 284 283 283 285 287 288 287 286 285 283 282 282 283 283 282 282 281 282 279 277 276 276 276 275 275 274 276 275 275 274 272 269 268 267 266 267 269 269 268 270 269 274 279 281 282 282 282
288 288 288 288 288 288 288 289 289 289 289 291 293 293 294 294 295 293 289 289 290 289 289 288 288 288 288 288 287 287 285 283 283 284 283 282 282 282 280 280 281 281 281 282 281 281 281 282 282 281 282 283 280 279 280 281 280 280 279 278 277 277 276 275 273 273 271 272 272 272 269 270 268 269 269 269 269 269 269 272 277 280 281 281 281
286 287 287 287 287 287 287 288 288 288 288 291 292 293 293 294 294 289 288 288 288 288 287 287 287 287 287 287 286 285 283 282 284 286 285 282 281 280 279 278 277 278 281 283 286 285 282 282 281 280 280 281 282 280 280 280 280 279 279 278 277 276 274 272 272 270 268 270 272 272 269 269 268 269 269 268 268 268 269 266 275 278 280 280 280
287 287 287 286 287 287 287 288 288 287 287 290 291 292 293 294 291 287 288 287 287 287 286 286 286 285 285 285 285 285 284 284 285 287 287 285 280 280 279 278 277 276 280 279 285 287 286 285 285 285 285 285 285 285 285 284 281 279 277 276 274 275 273 271 272 271 271 268 271 272 269 269 269 268 270 270 268 269 266 266 264 274 278 279 279
287 286 286 286 286 287 287 287 288 288 287 287 290 291 292 293 290 287 287 287 286 286 285 284 284 284 284 284 284 284 284 284 286 288 288 285 280 280 279 278 277 278 279 278 280 283 286 286 285 285 285 285 285 286 286 285 284 281 277 276 276 275 273 273 272 271 270 269 270 273 269 269 267 268 269 269 266 265 264 263 265 270 275 275 276
287 286 286 287 286 286 286 287 286 287 286 286 289 291 292 292 289 287 287 286 286 285 284 283 283 283 282 284 284 284 284 284 286 288 288 285 281 280 280 278 278 278 280 281 281 281 282 281 281 282 282 284 283 283 284 285 284 281 279 278 276 275 274 273 273 271 270 271 271 273 270 269 268 269 268 269 268 268 263 261 265 265 267 268 268
Wind_Speed
5 5 3 5 4 3 3 4 3 4 3 3 3 5 3 3 4 4 4 3 3 1 2 3 1 1 2 3 3 3 5 4 3 1 2 2 2 5 8 7 5 3 2 6 8 9 9 10 9 9 10 10 10 11 11 12 12 12 13 14 14 15 15 16 16 16 16 16 16 17 17 18 18 18 20 20 20 21 22 22 23 24 24 24 24
6 5 5 6 5 4 4 4 4 4 3 5 5 4 6 3 3 3 3 3 3 2 0 2 2 1 1 1 3 3 3 4 3 2 1 1 2 4 7 6 7 5 4 4 8 9 10 10 9 9 10 9 10 10 11 11 12 12 13 14 15 15 15 15 15 15 16 16 16 17 17 18 18 18 19 20 20 21 21 22 23 23 24 25 25
6 6 5 6 5 5 5 4 4 5 4 5 3 5 5 4 5 5 4 4 4 1 0 1 1 3 1 0 1 3 4 4 3 2 1 1 2 3 4 7 7 8 6 3 7 10 9 9 9 9 9 9 10 10 10 11 12 12 13 14 15 15 14 14 14 15 15 15 16 16 17 18 18 19 19 20 20 21 21 22 23 23 25 25 25
7 6 6 6 5 5 5 5 6 5 5 5 5 5 5 5 4 3 4 1 2 1 0 0 1 1 1 1 3 4 5 5 4 3 2 2 2 3 4 3 6 8 10 7 4 8 9 9 9 9 9 10 10 10 10 11 12 12 12 13 14 14 14 14 14 15 15 15 15 16 16 17 18 18 19 19 20 21 22 22 23 23 24 25 24
7 7 7 6 6 6 5 6 6 5 5 5 4 4 3 3 3 2 2 0 0 0 1 1 1 0 0 2 3 4 4 5 5 4 2 2 3 3 3 3 3 6 8 9 6 9 9 9 10 10 10 10 11 11 11 11 12 12 12 13 13 13 14 13 14 15 15 15 15 16 17 17 17 18 19 20 21 21 22 22 23 23 24 25 24
7 7 6 6 6 6 6 6 6 5 5 5 5 4 5 3 5 1 3 2 3 1 1 2 1 0 1 2 3 3 4 4 5 5 3 3 2 3 3 3 3 3 4 8 10 8 8 9 9 10 10 11 11 11 11 11 11 12 11 12 12 13 13 13 14 14 14 15 15 16 16 17 17 18 19 20 21 21 21 22 22 23 24 24 23
8 7 7 6 6 6 6 7 6 5 6 5 5 4 4 5 4 4 2 0 1 1 1 2 1 2 3 3 4 2 3 3 3 4 3 3 3 3 3 4 3 3 3 4 7 9 9 11 11 10 11 11 12 12 12 12 11 11 11 11 11 12 13 13 13 14 14 14 15 15 16 16 17 18 19 20 21 21 22 22 22 23 24 23 24
8 7 7 7 7 7 7 6 5 5 5 4 3 5 5 4 4 4 3 2 0 1 0 2 2 2 2 3 3 4 3 3 4 4 3 4 3 3 2 3 3 3 3 4 4 6 9 9 11 11 12 12 12 12 12 12 11 11 11 11 11 11 12 13 13 13 14 14 15 15 16 16 17 18 19 20 20 21 21 21 22 23 23 23 25
8 7 7 7 7 6 6 6 5 5 5 5 5 5 5 5 4 4 3 4 3 2 1 2 4 3 2 3 4 5 4 4 5 5 4 4 4 3 2 2 2 3 2 3 4 4 7 10 10 12 12 13 13 13 12 12 12 11 11 11 11 11 12 12 13 13 13 14 14 14 16 16 17 18 19 20 20 21 21 21 22 23 23 23 25
7 7 7 6 5 6 6 6 5 5 5 5 6 5 5 5 6 3 3 3 4 4 4 2 2 3 3 4 3 3 5 6 5 4 6 5 4 4 4 3 3 2 2 3 3 4 4 7 10 11 11 12 13 12 13 13 12 12 11 10 10 10 11 12 12 12 13 13 13 15 16 16 17 18 19 19 20 20 21 22 22 23 23 23 25
7 7 7 6 5 5 6 6 5 5 5 5 5 5 5 4 5 3 1 3 5 6 6 4 3 1 2 1 0 0 1 1 2 4 4 5 6 4 3 4 3 2 3 3 3 4 4 4 6 6 7 13 12 13 12 13 13 12 12 11 10 10 10 12 12 12 12 13 13 15 15 16 17 18 18 18 19 19 21 22 22 23 23 23 25
7 6 6 6 5 6 7 6 5 5 6 6 6 6 6 5 5 4 4 2 0 3 3 5 4 4 2 2 2 1 1 1 1 2 3 4 5 4 5 3 3 3 3 2 3 4 5 4 5 5 4 8 12 12 12 13 13 12 12 11 10 9 10 10 11 11 12 12 13 14 15 16 16 17 18 18 19 20 21 21 22 22 23 23 25
6 6 7 6 6 6 6 6 6 6 6 7 7 7 6 6 5 4 5 4 3 1 3 3 5 2 3 2 1 2 0 1 1 1 2 2 3 5 4 4 4 4 4 3 4 4 4 5 4 4 5 5 5 9 12 12 12 12 12 11 10 9 9 10 10 11 12 12 13 14 15 15 16 17 17 18 19 20 20 21 22 23 23 23 25
7 7 8 8 7 7 7 8 7 7 7 6 5 6 5 4 4 3 1 5 5 5 5 5 0 3 3 1 1 1 0 1 1 1 1 1 2 3 4 5 5 4 3 3 3 4 4 5 4 5 4 4 4 3 5 6 7 12 11 12 11 10 10 10 10 11 12 12 13 14 14 15 16 17 17 18 19 19 20 21 22 22 23 23 24
8 8 8 9 9 8 9 8 7 7 6 6 5 6 6 7 7 7 3 1 2 2 5 7 5 3 2 3 2 2 3 1 1 2 2 1 1 3 4 4 5 4 4 4 4 4 4 4 5 5 4 4 3 3 4 5 6 10 11 11 11 10 10 10 10 11 12 12 13 13 14 15 16 17 17 18 19 19 20 20 21 22 22 23 24
9 9 9 9 10 10 8 8 8 7 8 8 7 8 7 6 6 6 6 5 3 5 5 6 5 7 1 4 2 2 4 7 4 3 1 2 1 3 2 4 4 3 2 5 4 4 4 4 5 4 4 3 3 3 5 4 6 7 8 9 10 11 10 10 10 10 11 12 12 13 14 15 15 16 17 18 18 19 20 20 21 22 22 23 23
9 10 9 10 9 9 8 8 8 8 7 8 8 10 9 8 9 8 8 8 7 4 5 6 5 7 7 3 2 1 4 1 2 5 0 2 3 3 3 4 4 4 4 3 2 4 5 4 4 4 3 3 3 3 4 3 4 3 4 6 9 10 10 9 9 10 11 11 12 13 14 14 15 16 17 17 18 19 19 20 21 22 22 22 23
9 10 10 9 10 10 9 9 9 8 8 9 8 6 7 8 9 9 9 7 8 7 6 4 6 7 5 2 4 5 3 2 3 5 1 2 1 2 3 4 3 4 3 3 4 4 4 5 4 4 3 3 3 3 4 3 3 3 3 4 9 9 9 9 9 10 10 11 12 13 13 14 15 16 16 17 18 18 19 20 21 22 22 22 23
11 10 10 10 10 9 10 10 10 9 8 8 8 9 8 9 7 8 9 8 6 8 9 6 3 6 5 2 1 1 4 6 6 1 2 2 1 2 3 2 3 3 4 4 4 5 3 4 5 4 3 3 3 3 3 4 4 5 7 7 8 8 8 8 8 9 10 11 12 12 13 14 15 16 16 17 18 18 19 20 20 21 21 22 23
11 11 11 11 10 10 10 10 11 10 9 9 10 8 6 6 8 10 8 8 9 10 7 6 9 5 5 6 4 1 1 1 3 8 4 2 3 1 2 1 1 3 4 4 4 6 6 3 5 4 3 3 2 3 3 3 4 3 3 7 7 8 8 7 7 8 9 11 12 12 13 14 14 15 16 17 18 18 19 19 20 21 22 22 23
11 11 11 11 10 11 10 11 10 10 8 8 8 8 10 9 8 7 8 8 8 9 7 8 8 8 5 5 3 5 2 0 1 1 3 3 3 4 3 1 1 3 4 4 2 3 5 5 4 4 3 3 3 3 3 3 4 3 4 7 8 7 8 7 7 7 8 9 11 12 12 13 15 16 17 17 17 18 18 19 20 21 22 22 23
10 11 11 11 11 10 11 11 11 10 8 10 9 9 8 9 10 10 9 10 7 7 10 7 8 7 8 7 8 4 2 2 1 2 1 2 5 4 6 6 7 5 3 4 3 2 3 5 5 3 3 4 3 3 2 2 3 3 4 7 7 7 8 7 7 7 8 9 10 11 12 13 15 16 16 17 17 17 18 19 20 21 22 23 23
8 9 11 10 11 11 11 11 10 10 9 9 10 10 9 10 9 9 10 11 9 9 8 7 7 8 8 8 9 10 10 10 9 6 6 5 3 4 3 6 6 2 3 1 2 2 3 3 5 4 4 4 3 3 3 2 3 4 7 7 7 7 7 7 6 7 7 8 10 11 12 13 14 15 16 16 17 17 18 19 20 21 22 23 24
8 9 10 11 10 10 10 10 10 10 11 10 9 10 9 8 9 9 10 10 9 9 9 10 10 8 10 9 8 8 8 8 8 9 9 8 8 8 6 3 1 3 1 3 3 3 3 3 3 4 4 4 3 3 3 2 3 7 4 6 7 7 7 7 7 6 7 8 10 11 12 13 13 14 15 16 16 17 18 19 20 20 22 22 23
10 10 11 10 10 10 11 11 11 11 11 10 10 10 9 9 10 11 11 11 11 11 10 11 12 11 10 9 9 8 9 8 6 8 8 7 7 7 2 2 5 4 1 3 2 1 2 2 3 3 4 4 4 4 3 3 3 5 5 5 7 6 6 7 7 7 7 9 10 11 12 12 13 14 15 15 16 17 18 18 19 20 21 22 23
10 11 9 8 10 11 11 11 12 11 11 11 10 10 10 9 10 11 11 11 9 11 12 12 10 12 9 8 8 8 8 6 7 7 7 6 5 8 5 0 1 5 0 3 2 4 1 1 1 2 3 3 4 4 3 3 3 6 6 4 5 6 6 6 7 7 8 9 10 11 11 12 12 13 14 15 16 16 17 17 18 19 20 21 22
11 10 7 10 10 10 11 11 11 11 10 10 10 9 9 8 8 10 10 9 10 10 10 11 10 10 9 9 9 9 9 8 8 8 7 8 8 8 8 6 1 2 3 3 2 5 4 2 3 2 3 3 4 4 3 3 4 6 5 3 2 5 6 6 6 7 8 9 10 11 11 12 12 13 14 15 15 16 16 17 18 18 19 20 21
9 8 8 9 9 10 10 11 10 9 9 10 10 9 9 9 9 9 11 8 9 11 11 11 13 12 12 11 9 9 9 9 9 9 9 8 8 6 8 8 9 6 2 5 4 5 5 4 2 3 3 4 4 3 3 4 4 7 5 3 2 2 6 6 7 7 9 9 10 11 11 11 12 13 13 14 14 15 15 16 17 18 18 19 20
9 7 8 8 9 9 9 9 9 9 10 10 10 10 10 10 10 10 11 9 9 11 10 11 11 12 10 11 10 10 11 10 8 7 7 6 6 7 8 10 10 9 7 7 8 7 5 3 5 5 4 4 4 3 4 3 4 5 3 2 2 1 5 6 7 8 9 9 10 11 11 11 12 12 13 14 14 14 15 15 16 17 17 18 20
8 7 7 8 8 9 9 9 9 9 11 10 10 10 10 10 11 12 11 10 10 10 10 11 12 12 11 10 9 9 8 8 10 10 8 8 8 8 8 6 7 10 8 9 8 6 4 3 2 5 4 5 4 3 3 3 6 5 3 3 2 2 6 7 7 8 8 9 10 11 11 11 11 12 13 13 14 14 14 15 15 16 16 18 19
7 8 8 8 8 8 9 9 9 10 10 11 10 10 10 10 10 10 10 9 10 11 11 10 10 10 12 12 8 6 2 3 3 5 5 7 8 8 9 8 8 9 9 7 5 2 3 8 4 2 6 4 5 4 3 2 4 4 3 2 2 5 6 5 7 7 8 8 10 10 10 10 11 12 12 13 14 14 14 14 15 15 15 17 18
9 8 8 9 8 9 8 9 10 10 10 10 10 10 9 10 10 9 10 11 11 12 12 10 6 4 6 9 11 10 8 6 6 6 7 7 7 7 7 7 8 8 7 8 8 5 1 4 4 3 6 7 5 6 3 2 3 5 3 2 2 4 3 3 6 6 7 7 9 9 9 9 10 12 12 13 13 13 13 14 14 14 15 16 17
8 8 9 9 9 9 10 10 11 10 10 10 10 9 9 10 10 10 10 11 11 10 9 10 9 10 11 11 8 7 6 8 7 6 6 7 6 7 7 7 7 6 8 8 8 4 1 1 3 4 5 7 3 4 5 4 3 3 3 2 1 2 2 2 3 5 6 7 8 9 8 8 9 11 12 12 13 12 13 13 13 13 14 15 16
8 9 10 9 9 10 10 11 11 11 11 11 10 10 10 9 9 8 8 9 10 8 5 6 7 9 10 11 11 10 9 8 7 8 7 7 7 7 7 7 7 8 6 6 5 7 6 1 3 3 4 3 4 3 6 5 3 2 2 2 1 1 1 1 2 3 6 5 8 8 7 8 9 10 11 11 12 12 12 11 12 12 13 14 16
7 10 10 10 10 10 11 11 11 10 11 10 9 10 11 10 10 8 7 7 9 10 12 12 12 9 8 9 7 5 5 7 7 7 6 7 7 9 9 7 8 7 6 4 6 4 9 4 4 6 5 2 3 4 3 3 3 3 2 1 1 1 1 0 0 1 4 4 7 7 7 7 8 9 10 11 11 11 11 10 10 11 12 14 15
9 9 9 10 9 10 10 10 9 9 8 8 8 9 11 11 11 12 11 11 11 12 12 13 10 8 11 9 7 8 7 5 5 6 6 6 7 7 7 5 6 8 6 3 4 6 4 8 5 6 4 5 2 3 3 3 3 2 1 1 2 2 2 1 1 1 4 4 6 8 7 7 8 9 10 10 10 10 10 9 9 10 11 13 14
9 8 7 7 8 8 9 9 9 9 9 8 9 8 8 10 11 11 11 11 9 5 3 2 2 3 5 7 5 8 10 11 8 7 8 7 6 6 7 7 6 4 3 4 5 5 8 8 6 2 3 2 2 3 5 5 2 1 1 2 2 2 2 2 2 2 4 4 5 8 8 7 8 10 10 10 10 10 9 8 8 9 10 13 14
7 6 7 7 8 9 9 9 9 9 9 10 9 9 8 7 7 7 4 5 6 6 8 9 9 9 10 10 8 8 8 11 11 9 9 10 8 8 7 7 6 6 5 4 5 7 8 8 9 6 4 5 3 3 4 4 5 4 3 4 3 2 3 3 3 2 2 2 1 3 5 6 8 10 11 11 10 10 9 7 7 8 10 13 14
6 6 6 7 7 7 8 8 9 9 10 10 10 9 7 6 6 6 6 6 6 6 5 5 5 5 5 4 5 7 9 10 10 11 11 10 9 10 9 8 7 7 7 6 7 8 9 8 4 5 7 4 5 5 3 3 3 4 5 4 5 4 4 3 4 1 2 3 3 4 5 6 7 6 9 11 10 9 8 7 8 10 11 13 14
7 7 7 8 8 7 8 8 9 8 7 7 7 7 8 8 8 8 7 7 5 4 3 4 5 6 5 6 6 8 10 7 7 7 9 10 8 8 6 7 8 8 8 7 7 7 8 8 6 7 5 5 4 3 3 3 2 4 6 5 7 4 4 3 4 2 1 1 2 2 4 4 4 6 9 10 10 10 9 8 9 10 12 12 13
6 5 4 4 5 6 6 6 5 4 4 5 4 5 6 7 5 5 5 4 4 4 4 3 3 4 5 6 7 7 7 9 10 10 11 10 10 10 7 8 8 8 7 6 6 6 5 6 5 3 5 5 6 6 6 6 10 10 4 6 6 3 2 4 3 3 4 2 2 2 3 2 2 2 3 5 5 7 7 8 7 9 11 11 13
3 3 4 4 4 4 4 3 2 3 3 3 5 7 6 4 4 4 4 4 4 4 5 4 3 4 4 5 5 8 11 10 10 11 12 13 13 11 12 11 10 9 8 7 7 7 7 8 8 9 7 8 9 10 10 9 5 3 5 5 6 3 1 4 6 4 3 2 1 5 4 2 2 3 2 4 5 5 5 5 4 6 8 11 12
2 2 3 3 3 3 4 4 3 3 2 2 3 4 5 5 4 4 4 4 4 5 6 7 8 5 4 3 3 4 4 3 5 9 12 14 13 11 11 14 13 15 11 9 10 9 10 10 8 8 10 10 10 9 11 7 5 7 6 5 4 3 4 2 6 2 2 2 0 2 5 1 2 2 3 4 4 4 5 5 9 9 9 10 12
1 2 2 3 3 3 3 3 3 3 2 2 3 5 6 8 8 5 5 5 6 6 6 6 4 4 5 5 4 5 6 8 7 7 9 12 13 13 12 14 14 14 13 16 14 9 8 9 9 10 9 9 9 8 7 5 7 6 5 5 6 6 5 5 3 3 1 2 1 2 7 0 1 1 3 4 3 3 6 8 9 9 9 9 11
3 3 3 3 3 2 3 3 3 3 2 3 5 7 8 9 10 8 5 6 6 6 6 6 6 6 7 6 6 6 6 10 10 11 9 9 12 13 12 15 15 15 13 13 10 14 14 10 10 10 11 10 7 9 11 9 7 8 6 6 7 6 5 4 6 2 2 2 1 1 5 2 1 1 3 5 3 3 5 7 9 8 8 9 10
3 3 3 3 3 3 3 4 4 3 3 4 6 7 7 8 9 8 4 6 5 5 6 6 6 7 8 8 8 9 10 11 8 7 6 6 5 6 6 6 6 9 10 11 8 3 4 9 10 11 12 8 11 8 7 9 11 10 10 9 6 6 7 7 2 2 1 2 2 0 4 3 0 0 4 4 2 4 3 6 8 7 7 7 10
4 4 4 4 3 3 3 3 3 3 2 3 4 6 7 8 9 6 3 3 3 3 4 4 5 6 7 8 8 6 3 2 2 4 6 6 5 5 4 4 5 5 5 5 3 3 4 4 4 3 1 3 2 5 8 8 8 5 7 6 8 6 3 1 1 1 2 2 3 2 6 3 2 1 5 4 2 4 4 5 7 6 6 6 9
3 3 2 2 3 2 2 2 2 1 1 2 2 4 6 6 8 4 4 5 4 4 3 3 3 3 3 4 4 3 4 4 6 10 7 5 5 6 5 5 4 3 5 2 1 1 1 0 1 0 1 2 4 4 7 7 5 6 7 6 6 5 4 0 6 1 4 2 4 5 4 4 2 2 4 2 2 4 4 3 5 5 5 6 8
4 3 3 2 3 4 3 3 3 3 2 3 6 7 7 9 7 3 4 3 3 3 3 2 3 3 2 3 3 3 3 5 6 10 9 8 6 7 6 6 5 4 7 2 3 6 5 4 4 5 6 6 7 8 10 12 9 9 7 6 5 6 5 5 5 3 5 2 3 6 2 6 1 2 4 2 2 4 5 4 3 4 4 5 8
4 4 4 3 3 3 4 4 5 4 3 3 5 6 7 9 7 5 4 4 3 3 3 2 2 3 3 6 5 5 5 5 8 12 13 10 8 8 8 7 7 8 8 4 3 3 6 7 7 7 7 7 9 10 12 14 16 12 10 10 8 8 7 6 7 3 2 1 5 5 3 5 1 1 3 4 3 3 4 4 4 3 4 4 6
4 4 4 4 3 2 3 4 5 5 3 2 4 5 7 9 7 5 5 4 4 3 3 3 3 4 4 5 9 8 6 5 10 12 14 12 8 8 9 8 9 10 10 7 7 6 5 4 4 5 4 7 6 6 8 16 17 12 7 5 8 9 8 6 6 1 4 5 6 9 6 3 2 2 2 4 4 3 1 3 2 3 3 1 1
Wind_Direction
195 214 194 219 206 199 203 216 214 230 203 234 226 256 264 243 236 249 264 263 279 282 227 238 162 107 245 111 143 165 125 119 110 79 48 21 22 56 57 34 12 12 90 107 112 114 108 100 99 93 86 79 74 69 66 63 60 59 55 51 50 49 46 43 39 37 36 32 29 26 23 20 18 17 15 12 11 9 7 4 2 2 1 360 358
203 202 189 222 209 203 210 226 221 226 199 232 221 227 243 245 251 253 246 243 264 263 215 236 160 121 339 106 171 147 106 128 131 119 82 30 37 57 56 36 357 353 34 81 117 112 110 108 109 106 96 87 76 71 66 61 58 57 56 54 50 47 46 43 39 35 33 31 27 24 21 19 17 16 13 12 10 8 5 3 3 2 1 360 358
198 196 204 217 210 201 220 223 238 236 212 233 214 215 229 225 222 219 211 221 237 241 228 245 165 193 92 202 129 129 122 123 117 118 96 54 43 61 56 40 18 0 355 108 120 117 118 115 110 103 95 86 78 71 65 64 60 56 55 54 52 47 44 41 37 34 30 29 26 21 19 19 16 14 13 11 8 7 3 3 3 2 0 359 359
195 197 201 209 213 208 219 213 230 236 215 227 223 221 218 231 226 211 219 177 205 140 353 89 227 183 106 132 151 145 143 150 142 150 131 79 64 59 68 45 26 14 4 349 104 108 106 106 100 93 86 76 72 68 65 61 59 56 55 54 51 49 43 39 34 31 29 26 23 20 19 17 15 12 13 10 7 7 4 2 3 1 359 359 359
197 197 201 208 209 211 218 219 226 228 219 220 216 225 241 250 249 237 271 189 209 42 41 34 315 318 243 192 142 143 147 148 150 145 146 113 89 82 76 66 38 23 8 12 59 103 99 95 92 86 79 71 64 62 61 60 58 55 53 54 50 47 43 38 34 30 29 24 21 19 19 15 14 11 10 9 8 6 4 3 2 0 358 359 358
190 201 200 207 213 214 216 222 224 222 219 208 208 205 223 221 239 229 261 261 252 307 17 323 21 341 126 175 147 155 145 147 154 163 154 133 113 92 90 73 61 39 17 28 44 70 104 100 90 84 79 72 64 59 58 58 56 55 53 53 51 47 41 35 31 30 27 22 21 19 18 13 12 10 9 9 7 5 5 2 2 0 359 357 357
197 192 200 202 211 219 219 223 217 211 209 211 206 203 204 215 207 217 253 17 340 6 215 230 151 189 158 147 132 121 118 132 129 142 155 146 109 105 91 96 80 61 38 45 43 57 81 91 84 78 74 67 62 57 57 58 55 54 53 50 48 47 41 33 30 29 23 21 21 19 15 13 11 8 9 8 6 5 3 2 2 0 358 358 357
200 196 197 202 208 216 219 220 218 202 213 214 208 215 210 218 216 199 184 257 61 276 122 194 158 180 174 135 141 133 117 120 142 147 156 139 140 133 114 111 104 90 69 63 62 59 62 72 80 77 72 65 59 54 54 55 54 52 51 48 44 43 43 35 30 27 22 21 21 17 14 12 10 7 9 7 5 5 2 2 1 360 358 358 357
204 200 200 203 209 215 223 217 209 201 209 212 206 220 206 214 221 218 177 199 182 197 255 203 139 181 163 155 175 150 161 168 162 159 143 151 161 159 148 148 137 110 84 75 69 61 60 58 64 69 65 61 56 55 51 49 48 48 47 45 42 37 40 37 30 22 21 20 21 15 13 11 10 7 8 5 5 3 2 2 1 360 358 358 356
204 202 207 210 206 209 223 219 203 203 212 209 218 215 214 204 223 219 189 151 184 181 204 209 158 153 164 186 226 194 169 169 163 154 152 157 170 175 185 170 152 150 103 92 87 82 68 64 57 57 60 59 56 53 53 47 43 43 41 42 39 34 35 37 29 22 21 20 19 15 14 10 9 6 6 5 4 1 2 2 1 359 358 358 356
204 203 206 208 208 212 218 220 197 203 209 213 225 221 215 211 214 226 214 196 187 191 183 159 102 76 138 152 10 42 57 81 143 154 167 169 170 177 145 167 157 155 151 121 112 100 88 74 73 62 55 59 56 55 52 48 43 39 37 34 36 32 32 35 29 21 23 19 18 16 13 9 8 5 5 4 3 360 2 1 0 360 357 357 355
204 202 204 205 208 213 218 217 201 195 205 211 221 213 209 207 225 194 186 196 3 165 130 121 66 57 25 29 27 52 64 90 196 202 172 170 167 151 161 153 151 168 171 159 123 107 95 89 82 77 66 57 59 57 52 46 42 42 35 29 29 29 29 33 28 24 22 18 18 16 13 8 6 7 5 2 3 359 2 0 359 359 357 356 355
203 195 203 206 209 212 213 220 203 199 204 213 212 209 204 199 198 182 174 182 227 149 212 124 119 37 21 14 10 22 59 122 207 273 239 210 163 155 151 140 159 167 183 159 129 110 109 103 99 89 75 69 51 53 52 44 39 41 37 29 25 24 27 27 24 26 21 16 15 15 12 7 6 6 4 1 2 360 2 359 359 358 355 354 354
202 198 203 203 206 208 209 213 202 206 210 212 210 203 197 198 171 170 213 185 203 183 192 129 47 170 149 288 335 352 334 134 177 258 278 249 200 166 164 161 169 176 154 141 127 114 120 117 112 97 86 77 71 65 52 44 33 39 38 29 25 23 25 24 24 26 20 15 13 14 10 7 6 3 2 2 1 359 2 358 357 357 353 353 353
207 202 203 205 206 205 211 210 205 199 202 213 207 207 199 198 186 184 190 267 264 233 186 192 179 147 119 104 240 234 276 279 238 242 259 255 304 205 181 167 174 172 166 152 134 124 123 126 115 107 97 86 80 74 63 51 47 44 37 30 25 25 20 19 21 24 19 13 12 11 9 4 6 2 0 1 1 358 1 358 356 356 354 352 353
210 207 209 210 207 209 209 208 210 199 201 204 204 211 202 200 194 200 170 185 206 223 206 207 142 134 230 206 204 161 264 235 204 261 193 241 242 242 198 185 173 167 150 165 153 126 122 125 115 114 108 104 96 80 75 54 44 37 28 29 25 25 20 15 19 21 19 12 11 9 10 6 3 3 358 0 1 359 357 357 356 355 353 353 352
213 212 210 214 211 212 210 211 210 206 201 208 207 208 202 197 191 191 192 191 203 215 222 203 209 200 156 96 17 259 224 264 162 261 200 216 248 221 229 186 179 182 179 188 117 128 131 120 120 113 119 120 104 92 77 59 46 35 16 23 32 26 23 16 16 18 15 14 10 7 8 6 2 4 358 358 360 359 355 357 355 355 355 352 352
216 215 213 213 214 212 211 210 211 207 203 211 212 202 202 199 197 194 201 203 191 199 216 220 211 224 213 168 158 177 174 236 112 268 359 233 286 231 227 212 189 181 186 163 154 136 142 132 129 128 130 125 116 95 82 64 54 30 39 28 36 25 24 18 17 16 14 13 8 8 7 4 2 1 360 356 357 358 355 355 355 354 354 352 352
218 216 214 212 215 213 212 214 214 211 204 207 211 207 204 203 193 198 203 197 186 204 208 204 209 249 238 238 47 58 150 132 211 61 312 293 248 239 244 211 196 187 188 194 171 142 146 138 134 132 134 132 120 105 82 58 49 36 48 47 36 25 19 23 19 16 13 12 10 8 5 4 1 360 359 357 357 356 355 354 355 354 354 353 351
218 218 216 213 211 214 211 214 215 214 201 209 212 210 206 206 199 203 202 198 197 208 208 193 193 217 201 227 224 99 114 58 151 178 169 186 269 307 311 274 190 218 204 191 181 163 148 142 134 132 134 129 123 108 97 85 65 35 26 46 38 21 15 18 18 19 13 11 11 7 4 3 1 358 359 358 358 354 354 354 354 354 354 355 354
220 220 218 216 210 213 212 216 216 215 206 215 216 208 207 202 199 202 208 211 207 212 202 203 199 212 174 233 205 220 213 317 33 106 152 177 269 199 242 12 306 266 230 214 209 171 157 149 142 142 140 137 131 114 95 97 79 53 45 51 36 22 11 14 14 16 13 10 10 5 3 3 2 358 358 356 356 354 353 353 354 354 354 356 357
219 221 221 217 215 213 216 217 217 214 207 215 213 213 211 210 207 205 206 210 209 208 212 207 203 206 195 191 197 192 178 229 218 170 343 175 206 207 200 185 213 240 192 202 198 142 134 136 134 140 139 141 138 120 121 104 99 76 66 57 42 26 11 6 10 10 11 6 8 5 2 3 1 359 357 354 353 354 352 353 354 353 354 356 357
214 220 220 217 217 214 216 219 217 214 211 212 213 211 209 209 209 207 208 209 207 208 214 216 202 206 206 195 202 196 201 205 204 189 189 203 205 250 202 200 206 221 246 154 117 109 135 141 148 152 156 146 144 138 139 134 90 82 76 67 48 31 15 1 7 11 7 5 10 4 5 2 359 357 355 353 352 352 352 353 354 354 355 355 356
218 218 219 215 215 217 216 218 220 216 216 213 213 211 209 205 206 206 211 212 210 205 208 213 209 208 211 207 211 209 219 214 203 188 191 210 196 215 197 162 157 205 260 76 53 92 128 155 175 160 160 148 155 156 154 132 102 85 65 63 52 34 19 2 7 3 5 8 8 7 3 359 357 355 353 351 351 351 352 352 353 354 354 355 354
221 218 222 209 211 215 212 215 220 218 219 212 216 211 206 206 207 209 211 208 208 205 207 214 209 208 214 210 210 212 217 214 183 188 207 202 194 213 225 150 177 193 217 137 150 25 116 147 166 184 155 152 152 151 149 131 114 97 84 51 55 39 23 11 8 4 7 8 8 6 1 355 355 354 351 350 350 350 350 352 352 352 353 353 352
222 222 215 201 209 215 213 217 219 219 216 218 216 212 209 209 209 212 214 216 210 208 213 216 214 217 212 206 210 212 219 202 196 178 188 172 189 198 172 93 106 185 267 181 177 117 241 129 182 189 163 160 158 151 142 130 104 111 100 70 40 41 25 14 6 1 7 8 7 5 358 353 352 353 350 349 348 348 348 350 350 351 351 351 351
222 224 202 202 209 211 214 217 219 218 217 219 219 215 213 213 215 218 219 215 211 208 215 216 218 218 215 211 210 211 214 203 187 199 185 194 189 183 166 167 182 164 190 204 195 220 174 199 192 200 194 169 161 159 152 145 130 122 106 84 40 33 32 16 7 4 6 8 3 3 354 351 351 351 349 347 345 346 345 347 348 349 349 349 349
224 215 212 205 208 210 211 219 219 219 219 220 218 215 212 212 218 218 223 213 215 214 218 215 220 214 213 213 208 215 212 203 196 200 196 196 195 181 182 185 176 216 205 205 206 230 162 144 229 220 193 178 177 162 164 134 124 124 116 112 88 8 30 19 13 9 7 6 2 2 351 351 349 348 346 343 342 341 341 344 346 347 347 347 348
226 212 216 208 212 210 212 217 219 220 221 219 218 217 212 213 216 218 222 215 216 218 216 214 217 212 213 212 207 213 214 206 194 192 192 189 196 191 188 191 194 190 187 208 219 196 214 188 156 217 182 179 160 155 136 152 145 134 135 124 111 39 34 27 16 17 4 3 2 0 350 349 347 345 340 338 337 338 338 341 343 344 345 345 346
222 217 208 212 214 210 215 217 217 218 222 221 219 217 214 215 217 219 219 214 216 219 214 211 211 208 210 209 213 220 207 183 198 192 182 185 181 185 194 212 195 203 188 191 225 194 168 186 173 163 184 172 149 147 152 147 142 133 130 124 101 69 44 33 23 17 4 0 5 358 348 347 344 340 337 335 334 334 336 338 341 343 343 344 344
214 215 206 213 212 211 212 218 216 219 221 223 220 219 215 218 217 220 218 216 216 217 216 210 217 208 208 208 206 227 161 189 167 172 185 178 191 187 198 200 208 212 186 183 205 242 143 182 225 193 149 159 153 142 127 120 137 129 121 114 107 72 55 29 26 15 1 359 2 354 347 346 342 336 332 331 331 330 333 336 339 341 342 343 343
217 210 208 213 209 209 212 216 219 219 219 220 218 219 216 220 217 216 215 212 215 215 216 214 220 208 206 210 204 197 185 183 187 185 187 195 184 185 196 199 209 206 178 172 193 194 324 186 149 137 144 139 153 138 133 114 107 112 112 116 97 77 55 24 18 9 355 354 357 348 343 344 339 333 330 329 328 328 331 333 338 340 341 343 342
210 204 213 213 209 209 212 215 218 219 219 219 216 217 216 219 219 216 214 209 213 222 221 219 219 212 210 206 198 202 173 184 184 173 177 181 172 181 180 183 199 198 171 171 172 138 42 44 111 144 141 134 137 156 145 150 145 117 104 97 86 78 69 38 345 349 347 350 352 344 340 338 335 331 328 327 324 325 327 331 338 339 340 342 341
202 210 214 213 210 209 212 215 218 220 219 218 213 212 213 216 220 217 217 213 221 232 227 222 210 206 204 203 204 194 175 177 167 179 181 175 179 177 187 187 193 192 200 140 155 148 165 137 93 112 145 159 119 184 162 160 167 154 106 113 146 159 128 61 19 326 330 340 344 342 335 333 330 327 324 324 320 321 323 329 335 339 340 340 340
206 211 214 213 212 211 214 215 216 217 217 216 211 208 213 212 214 217 218 213 213 216 218 222 218 208 207 216 212 154 156 164 181 187 178 188 187 189 188 185 185 193 202 172 131 134 151 166 156 156 164 158 145 179 165 144 137 145 135 134 169 218 211 183 26 270 309 318 337 339 333 329 325 324 321 319 316 316 319 324 335 339 340 340 340
213 215 215 215 214 212 216 215 216 218 219 219 215 211 213 212 214 218 217 217 217 221 221 221 216 195 204 204 197 166 150 160 185 182 189 196 192 191 179 184 187 187 184 157 127 128 148 142 188 171 167 143 119 121 124 116 123 112 148 209 196 215 236 234 233 238 285 289 324 331 327 325 323 323 320 315 313 311 314 322 333 339 340 338 339
217 212 216 217 216 215 217 216 217 219 220 219 221 221 221 219 219 218 220 216 213 210 218 229 221 227 247 231 180 153 166 185 180 176 179 186 183 173 180 174 179 175 160 134 129 123 141 152 138 167 144 105 123 148 157 147 136 166 195 209 227 247 254 241 238 243 261 273 317 325 326 321 318 317 318 314 311 308 312 319 331 339 338 337 338
214 212 209 210 211 215 215 216 216 217 218 218 216 219 219 222 227 230 212 192 190 201 211 210 199 189 194 204 195 191 185 188 186 177 169 178 173 183 182 179 168 160 153 126 123 127 138 151 155 142 180 159 155 171 189 172 160 194 225 211 235 234 234 278 260 222 189 194 229 311 318 317 312 311 312 314 312 306 309 316 330 341 338 335 338
212 212 212 212 215 215 217 216 215 215 217 213 214 217 215 206 201 195 197 202 208 214 214 200 194 199 202 195 186 184 186 198 181 176 174 180 185 191 184 173 167 164 159 156 144 142 148 143 135 163 156 176 161 169 165 151 167 200 219 237 262 220 210 222 278 266 203 225 248 277 295 291 293 302 304 311 311 305 310 323 335 342 338 334 338
213 210 208 208 214 208 215 214 219 222 220 207 204 208 203 197 193 198 198 202 204 201 193 195 191 188 173 168 172 189 199 195 182 182 171 181 182 185 179 165 169 167 165 160 152 149 145 152 162 165 174 151 145 75 91 125 190 254 212 200 234 235 239 226 214 248 264 198 269 298 309 307 303 303 306 311 311 313 326 334 331 331 329 332 337
203 204 205 213 215 214 215 211 210 190 197 213 211 204 204 208 199 192 195 195 191 193 193 185 172 167 169 182 186 190 185 189 191 188 191 180 172 180 181 170 172 175 166 163 153 143 149 152 140 127 146 160 181 159 171 189 207 217 168 180 234 242 267 296 270 215 221 251 283 304 288 229 293 293 303 306 301 317 318 322 316 323 325 331 336
161 153 161 168 179 195 193 192 173 164 178 180 182 193 194 191 194 182 154 168 174 177 179 179 192 191 187 179 181 183 192 192 187 188 191 194 195 187 173 173 177 173 167 156 165 170 164 172 178 167 173 196 189 195 197 213 183 106 146 169 208 220 204 281 285 233 186 156 337 304 277 229 197 277 285 292 289 310 297 304 285 306 321 333 334
157 144 140 145 155 160 171 176 180 180 171 161 168 183 198 177 154 165 171 161 161 173 183 193 205 187 168 157 146 150 155 175 203 200 197 196 191 190 187 190 181 171 163 175 181 178 181 188 179 179 188 194 204 196 207 188 175 188 184 180 186 157 199 231 267 331 159 113 78 265 286 228 144 259 289 280 283 292 294 285 306 323 327 331 333
95 99 107 129 131 142 146 149 163 171 181 144 164 174 173 171 163 162 164 169 178 186 192 196 189 159 156 146 138 147 173 190 191 198 205 203 199 198 186 196 208 216 199 175 175 184 193 180 181 195 185 200 202 185 197 170 191 173 179 174 188 189 199 210 221 244 184 136 173 258 279 257 116 216 285 272 272 277 282 297 314 321 330 330 332
113 115 142 135 136 127 131 142 151 150 163 162 181 181 182 180 172 163 172 176 176 186 188 188 179 169 158 154 155 171 183 183 192 198 190 199 205 201 193 195 208 213 221 233 215 190 178 178 180 193 199 196 189 204 193 182 150 171 162 189 199 199 198 206 219 219 171 161 109 303 283 278 109 216 278 277 259 279 296 307 317 326 331 332 330
120 124 122 128 134 142 158 162 160 161 166 184 179 176 178 177 174 168 170 174 177 179 187 185 178 168 167 167 175 197 204 202 195 178 182 189 193 203 203 199 205 220 232 235 230 236 188 189 185 195 212 183 199 195 164 147 157 179 179 202 181 192 197 218 193 205 155 128 166 202 297 285 160 311 276 260 230 290 271 280 310 320 327 328 332
150 151 148 135 145 145 138 135 136 138 167 180 175 174 175 174 170 155 137 129 140 164 172 178 175 174 182 189 198 207 193 191 183 178 183 185 181 200 207 211 210 215 225 225 228 215 206 228 248 286 328 192 105 123 154 172 179 167 173 173 176 178 151 64 7 226 278 178 147 151 248 253 196 201 241 234 278 284 263 290 301 317 318 325 334
114 113 99 105 129 114 91 88 88 75 27 51 165 177 171 168 151 135 138 138 149 156 158 163 162 163 165 179 187 184 170 190 195 192 183 163 172 186 196 208 219 235 236 236 86 142 202 250 15 71 113 151 140 137 154 155 125 112 97 86 97 110 120 182 251 326 250 274 175 189 246 268 188 197 258 207 223 270 276 261 267 313 311 320 334
147 147 151 140 147 137 136 139 138 140 159 189 186 180 175 160 140 127 125 119 129 149 151 139 133 132 154 174 181 187 183 200 193 190 180 155 179 187 192 201 210 220 235 236 175 188 166 148 141 124 129 149 154 156 157 154 145 137 123 119 165 154 153 220 250 212 257 164 223 212 244 286 219 221 278 233 197 250 252 239 264 287 311 314 343
156 160 144 123 129 148 155 162 162 158 187 202 178 175 164 159 143 139 136 134 133 142 122 104 109 128 161 177 182 189 194 197 182 187 183 169 186 190 188 193 205 219 232 193 189 174 158 152 153 152 155 165 170 174 169 163 159 156 157 193 176 154 193 198 234 204 275 220 220 165 195 240 325 269 299 287 320 243 239 247 244 271 323 332 345
152 154 152 142 141 138 152 153 158 153 161 186 178 176 170 157 136 133 140 144 147 156 149 145 148 157 168 185 193 198 199 171 183 190 189 181 194 189 193 186 208 221 225 179 191 173 165 155 166 159 174 178 175 168 177 173 170 175 191 173 147 170 189 197 208 72 320 265 191 172 204 262 122 276 115 339 317 271 204 252 257 262 259 221 4